Dewpoint
53 54 55 55 55 54 54 53 54 55 54 53 52 52 51 52 56 57 57 57 56 59 59 59 56 53 50 48 45 44 44 44 44 43 43 44 44 40 37 37 36 37 38
51 53 53 54 54 54 53 53 53 53 51 51 49 48 48 53 55 57 57 58 58 59 60 58 56 53 50 47 47 45 45 44 45 43 42 39 40 41 39 39 38 37 38
50 52 52 52 53 52 53 53 52 52 51 50 48 52 53 55 55 56 56 57 58 59 60 57 57 53 50 47 47 45 45 45 45 44 42 38 36 36 37 39 40 39 39
51 51 52 52 52 52 53 53 52 52 51 51 49 49 48 50 55 55 56 58 59 59 60 58 55 54 52 49 47 47 46 46 44 44 43 40 39 35 33 35 35 36 37
51 51 51 52 52 52 52 53 53 52 51 52 51 50 54 54 56 56 56 57 58 59 59 58 56 55 52 49 48 48 48 46 45 44 43 40 39 37 34 32 33 34 34
50 51 52 53 53 52 52 52 51 52 51 52 53 53 53 54 56 56 57 57 58 58 57 58 56 54 52 51 49 48 48 46 44 42 41 38 36 35 35 34 33 32 33
49 50 52 52 53 52 51 51 50 51 51 52 53 55 56 55 55 56 57 57 57 56 57 57 55 53 52 50 50 50 48 45 43 42 41 39 37 37 36 34 33 32 33
49 49 51 52 52 50 49 49 50 51 53 55 55 56 57 55 56 56 58 57 57 57 57 56 55 53 52 52 51 48 47 47 47 46 45 43 41 39 38 35 34 31 30
48 48 49 51 52 52 48 49 50 52 53 55 56 57 58 57 55 57 58 58 58 57 55 56 54 52 51 49 48 48 47 47 46 46 46 45 45 44 41 38 35 33 29
46 49 49 49 50 52 52 51 52 52 52 53 57 57 58 58 57 57 58 57 57 56 55 55 52 49 48 48 48 47 47 47 47 46 45 46 45 43 43 39 37 35 33
44 46 48 50 50 51 53 53 53 52 52 50 55 57 58 59 58 58 57 57 56 55 55 53 51 49 48 48 48 48 47 46 45 46 46 45 44 43 40 39 37 35 34
43 45 46 47 48 51 53 52 53 52 52 54 54 56 58 59 58 57 57 57 56 55 53 52 50 48 48 48 48 46 46 45 45 46 45 44 42 40 38 37 36 35 35
38 41 44 46 46 48 51 52 53 54 55 55 56 57 58 58 57 58 57 56 54 52 52 50 50 48 48 48 47 47 47 46 45 44 43 41 39 37 35 34 34 34 34
30 36 39 44 46 47 49 51 52 54 55 55 56 56 58 58 58 57 57 56 53 51 50 51 49 49 48 48 48 47 46 46 44 43 40 38 35 32 31 31 31 31 31
30 30 38 42 48 49 50 51 52 55 55 55 56 55 55 56 55 54 54 52 51 51 50 49 49 49 48 48 47 46 45 42 38 35 31 30 32 35 32 29 28 28 27
29 30 36 41 46 51 52 55 54 54 55 55 53 52 51 52 52 51 50 50 50 49 49 48 47 47 47 42 43 42 40 35 30 28 28 28 31 34 34 33 32 29 26
31 35 40 46 53 54 54 54 52 52 52 51 50 50 50 48 48 48 48 47 47 47 47 47 46 46 44 40 39 35 31 29 28 27 29 30 28 30 28 29 29 28 30
41 52 52 51 50 50 51 51 51 51 50 50 49 48 48 47 47 46 46 46 46 46 45 45 44 44 39 36 35 33 30 32 32 30 29 28 26 27 29 28 27 27 27
44 51 50 50 49 49 49 50 50 50 49 48 48 48 47 46 46 45 44 45 45 44 44 43 40 36 35 34 34 33 31 28 28 28 28 27 26 29 30 28 27 26 25
51 50 49 48 48 47 48 48 48 48 47 47 46 45 45 45 44 43 43 42 41 38 36 34 34 32 31 33 32 29 28 27 25 25 26 27 27 28 29 26 26 25 26
50 50 49 47 47 47 47 45 45 45 46 45 44 44 44 43 43 43 42 40 36 33 32 31 31 30 30 31 30 28 26 26 25 24 24 25 25 24 24 26 27 28 28
49 49 48 46 46 46 45 44 43 44 44 43 42 42 40 38 39 38 37 35 33 31 30 30 29 29 28 28 27 26 26 24 24 22 23 24 22 23 25 27 25 23 26
48 49 47 46 46 45 44 43 43 41 39 37 37 37 35 33 34 35 34 34 32 30 30 29 28 26 26 25 24 23 22 22 22 21 21 21 22 23 25 22 20 24 22
44 46 45 43 40 38 36 36 37 36 33 29 27 27 28 28 28 28 29 30 30 30 30 30 28 26 24 23 23 22 23 20 20 22 21 22 23 24 23 22 22 23 21
38 37 31 27 27 29 33 34 30 28 26 26 25 25 26 27 26 25 26 26 28 29 28 27 28 24 23 23 21 21 21 22 22 21 21 21 21 19 18 19 19 18 17
26 24 23 24 23 24 25 26 26 25 24 25 26 28 28 26 26 26 26 28 28 27 27 27 26 25 24 19 19 20 20 19 19 21 19 16 14 15 17 16 16 15 15
Lifted_Index
-0 -0 1 2 2 3 3 4 4 5 6 6 7 7 6 5 5 4 4 3 2 2 1 0 0 0 0 0 1 1 2 4 6 7 7 7 7 6 7 7 8 9 10
1 1 1 1 2 3 3 4 4 5 5 6 6 7 6 5 4 4 3 2 2 1 1 0 -0 -0 -0 0 1 1 2 4 5 6 7 6 6 6 6 7 8 9 10
1 1 1 1 1 2 3 4 4 5 5 6 6 6 5 5 4 3 2 2 1 1 0 -0 -0 -0 -0 0 1 1 2 3 5 6 6 6 6 5 6 6 7 9 9
1 2 2 2 2 3 3 4 4 5 5 6 6 5 5 4 3 3 2 2 1 1 0 -0 -0 -0 -0 -0 0 1 2 3 4 5 6 5 5 5 5 6 7 8 9
1 1 2 2 2 3 4 4 5 5 6 6 6 5 5 4 3 2 2 2 1 1 0 -0 -1 -1 -1 -0 0 1 2 3 4 4 5 5 5 5 4 5 6 8 9
-0 0 1 2 2 3 4 4 4 5 5 5 5 5 4 3 2 2 2 1 1 1 -0 -1 -1 -1 -1 -1 -0 1 2 3 4 4 5 5 5 4 4 5 5 7 8
-1 -0 0 1 2 3 3 4 3 3 3 3 3 3 3 2 1 1 1 1 1 0 -0 -1 -1 -1 -1 -1 -0 1 2 3 4 5 5 5 5 5 5 6 6 6 7
-1 -1 -0 0 1 2 3 3 3 2 2 1 1 2 1 1 0 0 0 0 0 -0 -1 -1 -1 -1 -1 -1 -0 1 2 3 4 5 5 5 5 6 6 7 6 6 6
-1 -1 -1 -1 -0 1 2 3 3 2 1 1 0 0 -0 -0 -1 -1 -0 -0 -0 -1 -1 -1 -1 -1 -1 -1 -0 1 2 3 4 5 5 5 6 6 7 7 7 7 7
-1 -1 -1 -1 -1 -1 0 1 2 2 1 1 -0 -1 -1 -1 -1 -1 -1 -1 -1 -1 -1 -1 -1 -1 -1 -1 -0 1 2 3 4 5 5 5 6 6 7 8 9 9 9
-1 -1 -1 -1 -1 -1 -1 -0 0 1 1 1 0 -1 -1 -2 -2 -2 -2 -1 -1 -2 -1 -1 -1 -1 -1 -1 -0 1 2 3 4 5 5 6 6 7 8 9 10 10 10
-1 -1 -1 -1 -1 -1 -1 -1 -1 -1 -0 -0 -0 -1 -1 -2 -2 -2 -2 -2 -1 -1 -1 -1 -1 -1 -0 -0 0 1 2 3 4 5 5 6 7 8 9 10 10 10 10
-1 -1 -1 -1 -1 -1 -1 -2 -2 -2 -2 -1 -1 -1 -2 -2 -2 -2 -2 -1 -1 -1 -1 -1 -1 -1 -0 -0 0 1 2 3 4 5 6 7 8 9 10 10 10 11 11
-0 -0 -1 -1 -1 -1 -1 -2 -2 -2 -2 -2 -2 -2 -2 -2 -2 -2 -2 -1 -0 -0 -1 -1 -1 -1 -0 -0 0 1 3 4 5 6 7 8 9 10 10 11 11 12 12
-0 0 -0 -1 -1 -1 -2 -2 -2 -2 -2 -2 -2 -2 -2 -2 -3 -2 -2 -1 -1 -1 -1 -1 -1 -0 0 1 1 2 4 5 6 7 8 9 10 10 11 12 12 13 13
0 1 1 -0 -1 -1 -1 -2 -2 -2 -2 -2 -2 -2 -2 -2 -2 -2 -2 -1 -1 -1 -1 -1 -0 0 1 2 3 4 5 6 7 9 9 10 10 11 12 13 14 14 14
1 1 0 -0 -1 -1 -2 -2 -2 -2 -2 -2 -2 -2 -2 -2 -1 -1 -1 -1 -0 -0 0 0 1 2 3 4 5 6 7 8 9 10 10 10 11 12 13 14 14 15 14
1 0 -0 -1 -1 -2 -2 -3 -3 -3 -3 -2 -2 -2 -1 -1 -1 -0 0 0 1 1 1 2 3 4 5 6 6 7 8 9 10 10 11 12 13 14 15 15 15 15 16
0 -0 -1 -1 -2 -2 -3 -3 -3 -3 -3 -2 -2 -1 -1 -0 1 1 1 1 1 1 2 3 5 6 6 7 8 9 9 10 10 11 13 14 15 16 16 16 16 16 16
-0 -1 -1 -1 -2 -2 -3 -3 -3 -3 -2 -2 -1 0 1 1 2 2 2 2 2 3 3 5 6 7 8 9 9 10 10 11 12 13 14 16 16 17 18 17 17 17 17
-0 -1 -1 -1 -1 -2 -2 -2 -2 -2 -1 0 1 2 2 3 3 3 3 3 3 4 5 6 7 9 10 10 11 11 12 13 14 15 16 17 18 18 18 18 18 18 18
-0 -0 -0 -1 -1 -0 -0 -0 -0 1 1 2 3 3 3 4 4 4 4 4 5 5 6 7 8 10 11 12 13 13 14 15 16 17 18 18 19 19 19 19 19 19 18
0 0 -0 0 0 1 1 2 2 3 3 3 4 4 4 5 5 5 6 6 7 8 8 9 10 11 13 14 15 16 16 17 17 18 19 19 19 20 20 19 19 19 19
1 1 1 1 1 2 3 4 4 4 4 4 5 5 6 6 7 8 9 9 10 11 11 12 13 14 15 16 16 17 17 18 18 19 19 20 20 20 20 19 19 19 19
1 1 2 2 2 3 4 5 6 6 6 6 7 7 8 9 10 11 12 13 14 14 14 15 16 16 16 17 17 18 18 19 19 20 20 20 19 19 19 19 19 19 19
2 2 2 3 3 4 5 6 7 8 7 7 8 9 10 10 11 12 13 15 16 16 17 17 17 17 17 17 18 19 19 20 20 20 19 19 19 19 19 19 19 19 19